Inquirer Daily News

Weather

Get conditions and forecasts for any City, State, ZIP code or Country:  
Trenton, NJ
on Saturday, November 10, 2012

Saturday
Previous Day Next Day
Daily Summary
 ActualAverageRecord
Temperature
Mean Temperature °F 48°F  
Max Temperature 55°F 57°F 72°F (1999)
Min Temperature 33°F 38°F 23°F (2003)
Degree Days
Heating Degree Days 21 17  
Month to date heating degree days 233 162  
Since 1 July heating degree days 540 559  
Cooling Degree Days 0 0  
Month to date cooling degree days 0 0  
Year to date cooling degree days 1234 965  
Moisture
Dew Point 35°F   
Average Humidity 70    
Maximum Humidity 89    
Minimum Humidity 50    
Precipitation
Precipitation T in 0.11 in 2.10 in (1875)
Month to date precipitation 0.36 1.08  
Year to date precipitation 32.41 40.51  
Wind
Wind Speed 1 mph   
Max Wind Speed 7 mph   
Max Gust Speed 8 mph   
Visibility 9 miles   
Events     

Key: T is trace of precipitation, MM is missing value
Source: NWS Daily Summary
Time(EST)TemperatureDew PointHumidity Pressure Visibility Wind DirectionWind SpeedGust SpeedPrecipitationEvents Conditions
12:53 AM 35.1°F 30.0°F 82% 30.22 in 10.0 miles Calm Calm - N/A   Clear
1:53 AM 35.1°F 28.9°F 78% 30.22 in 10.0 miles Calm Calm - N/A   Clear
2:53 AM 35.1°F 30.0°F 82% 30.23 in 10.0 miles NNW 5.8 mph - N/A   Clear
3:53 AM 35.1°F 30.0°F 82% 30.24 in 10.0 miles Calm Calm - N/A   Clear
4:53 AM 34.0°F 30.0°F 85% 30.25 in 10.0 miles Calm Calm - N/A   Clear
5:53 AM 34.0°F 28.9°F 82% 30.27 in 10.0 miles WSW 3.5 mph - N/A   Clear
6:53 AM 33.1°F 30.0°F 89% 30.29 in 8.0 miles Calm Calm - N/A   Clear
7:53 AM 39.9°F 32.0°F 73% 30.32 in 9.0 miles Calm Calm - N/A   Clear
8:53 AM 46.0°F 35.1°F 66% 30.32 in 9.0 miles Calm Calm - N/A   Partly Cloudy
9:53 AM 48.9°F 36.0°F 61% 30.32 in 10.0 miles Calm Calm - N/A   Partly Cloudy
10:53 AM 50.0°F 37.0°F 61% 30.33 in 9.0 miles SW 3.5 mph - 0.00 in   Overcast
11:53 AM 52.0°F 35.1°F 53% 30.31 in 10.0 miles Calm Calm - N/A   Overcast
12:53 PM 54.0°F 36.0°F 51% 30.30 in 9.0 miles North 3.5 mph - N/A   Overcast
1:53 PM 55.0°F 37.0°F 51% 30.29 in 8.0 miles North 3.5 mph - N/A   Overcast
2:53 PM 55.0°F 39.0°F 55% 30.30 in 8.0 miles Calm Calm - N/A   Overcast
3:53 PM 53.1°F 37.9°F 57% 30.31 in 8.0 miles SE 3.5 mph - N/A   Mostly Cloudy
4:53 PM 52.0°F 37.0°F 57% 30.32 in 8.0 miles Calm Calm - N/A   Mostly Cloudy
5:53 PM 51.1°F 37.9°F 61% 30.34 in 8.0 miles Calm Calm - N/A   Mostly Cloudy
6:53 PM 50.0°F 37.9°F 63% 30.35 in 9.0 miles Calm Calm - N/A   Mostly Cloudy
7:53 PM 46.9°F 37.0°F 68% 30.37 in 8.0 miles SE 4.6 mph - N/A   Clear
8:53 PM 46.9°F 37.0°F 68% 30.38 in 8.0 miles Calm Calm - N/A   Clear
9:53 PM 44.1°F 37.0°F 76% 30.40 in 8.0 miles Calm Calm - N/A   Clear
11:53 PM 43.0°F 37.0°F 80% 30.40 in 7.0 miles Calm Calm - N/A   Partly Cloudy
Astronomy
Sunrise:06:39 AM (EST) Moon Rise:02:41 AM (EST)11/10
Sunset:04:46 PM (EST) Moon Set:02:31 PM (EST)11/10
Moon Phase
Nov. 10 Nov. 13 Nov. 20 Nov. 28 Dec. 06

Copyright © 2014 The Weather Underground, Inc.